Regional Weather Roundup
Issued by NWS Goodland, KS

Home | Current Version | Previous Version | Text Only | Print | Product List | Glossary Off
Versions: 1 2 3 4 5 6 7 8 9 10 11 12 13 14 15 16 17 18 19 20 21 22 23 24 25 26 27 28 29 30 31 32 33 34 35 36 37 38 39 40 41 42 43 44 45 46 47 48 49 50

000
ASUS43 KGLD 200208
RWRGLD

GOODLAND FORECAST AREA HOURLY WEATHER ROUNDUP
NATIONAL WEATHER SERVICE GOODLAND KS
800 PM MDT SUN OCT 19 2014

...OFFICIAL OBSERVATIONS...

CITY           SKY/WX    TMP DP  RH WIND       PRES   REMARKS
GOODLAND KS    CLEAR     52  42  69 E5        30.08R
HILL CITY KS   CLEAR     54  46  74 NW3       30.02R
IMPERIAL NEB   CLEAR     58  39  49 CALM      30.06R
MCCOOK NEB     CLEAR     60  46  59 CALM      30.03R
AKRON CO       CLEAR     57  39  51 E7        30.11R
BURLINGTON CO  CLEAR     55  38  52 E8        30.10R
LIMON CO       CLEAR     51  36  56 CALM      30.15R
$$

...UNOFFICIAL OBSERVATIONS...

CITY           SKY/WX    TMP DP  RH WIND       PRES   REMARKS
COLBY KS       CLEAR     55  48  76 NE6       30.06R
GOVE KS          N/A     54  32  43 MISG        N/A
NORTON KS      CLEAR     54  43  66 CALM      30.01S
SHARON SPRINGS   N/A     56  45  66 CALM        N/A
TRENTON NEB      N/A     61  32  33 CALM        N/A
KIT CARSON CO    N/A     56  40  56 CALM        N/A
YUMA CO          N/A     57  38  50 CALM        N/A
$$



USA.gov is the U.S. government's official web portal to all federal, state and local government web resources and services.